Weather History for Billings, MT

Change the Weather History Date:

Sunday, January 13, 2013

  Actual Average Record
Temperature  
Mean Temperature 10 °F 27 °F  
Max Temperature 16 °F 36 °F 61 °F (1996)
Min Temperature 4 °F 18 °F -22 °F (1972)
Degree Days  
Heating Degree Days 55 38  
Month to date heating degree days 491 501  
Since 1 July heating degree days 3032 3322  
Cooling Degree Days 0 0  
Month to date cooling degree days 0 0  
Year to date cooling degree days 0 0  
Moisture  
Dew Point 2 °F    
Average Humidity 72    
Maximum Humidity 83    
Minimum Humidity 61    
Precipitation  
Precipitation T in 0.01 in 0.15 in (1984)
Month to date precipitation 0.39 0.20  
Year to date precipitation 0.39 0.20  
Snow  
Snow T in 0.30 in 4.20 in (1947)
Month to date snowfall 7.4 3.7  
Since 1 July snowfall 23.7 23.6  
Snow Depth 6.00 in    
Sea Level Pressure  
Sea Level Pressure 30.30 in    
Wind  
Wind Speed 16 mph (SW)    
Max Wind Speed 25 mph    
Max Gust Speed 31 mph    
Visibility 10 miles    
Events Snow    
T = Trace of Precipitation, MM = Missing Value Source: NWS Daily Summary

Daily Weather History Graph

Daily Weather History Graph

Search for Another Location

Airport:

Trip Planner

Search our weather history database for the weather conditions in past years. The results will help you decide how hot, cold, wet, or windy it might be!

Date:

Astronomy

Jan. 13, 2013 Rise Set
Actual Time 7:52 AM MST 4:54 PM MST
Civil Twilight 7:18 AM MST 5:27 PM MST
Nautical Twilight 6:41 AM MST 6:04 PM MST
Astronomical Twilight 6:06 AM MST 6:40 PM MST
Moon 8:43 AM MST (1/13) 7:46 PM MST (1/13)
Length of Visible Light 10h 08m
Length of Day
9h 01m
Waxing Crescent, 5% of the Moon is Illuminated
Jan 13
Waxing Crescent
Jan 18
First Quarter
Jan 26
Full
Feb 3
Last Quarter
Feb 10
New

Hourly Weather History & Observations

Time (MST) Temp. Windchill Dew Point Humidity Pressure Visibility Wind Dir Wind Speed Gust Speed Precip Events Conditions
12:53 AM 7.0 °F -9.1 °F -0.0 °F 73% 30.29 in 10.0 mi WSW 12.7 mph - N/A   Mostly Cloudy
1:53 AM 6.1 °F -12.2 °F -0.0 °F 76% 30.30 in 10.0 mi WSW 16.1 mph - N/A   Scattered Clouds
2:53 AM 5.0 °F -14.2 °F -0.0 °F 80% 30.30 in 10.0 mi SW 17.3 mph - N/A   Mostly Cloudy
3:53 AM 6.1 °F -9.5 °F -0.0 °F 76% 30.30 in 10.0 mi WSW 11.5 mph - N/A   Overcast
4:53 AM 5.0 °F -10.0 °F -0.0 °F 80% 30.30 in 10.0 mi SW 10.4 mph - N/A   Overcast
5:53 AM 5.0 °F -10.8 °F -0.0 °F 80% 30.32 in 10.0 mi SW 11.5 mph - N/A   Overcast
6:53 AM 5.0 °F -13.0 °F -0.0 °F 80% 30.33 in 10.0 mi SW 15.0 mph - N/A   Overcast
7:53 AM 6.1 °F -10.9 °F -0.0 °F 76% 30.34 in 10.0 mi SW 13.8 mph - N/A   Mostly Cloudy
8:53 AM 5.0 °F -12.3 °F -0.9 °F 76% 30.36 in 10.0 mi SW 13.8 mph - N/A   Mostly Cloudy
9:53 AM 7.0 °F -9.8 °F -0.0 °F 73% 30.35 in 10.0 mi SW 13.8 mph - N/A   Mostly Cloudy
10:53 AM 10.0 °F -5.9 °F 1.9 °F 70% 30.33 in 10.0 mi SW 13.8 mph - N/A   Mostly Cloudy
11:53 AM 10.9 °F -7.0 °F 3.0 °F 70% 30.31 in 10.0 mi WSW 18.4 mph - N/A   Mostly Cloudy
12:53 PM 12.9 °F -2.2 °F 3.9 °F 67% 30.30 in 10.0 mi SW 13.8 mph - N/A   Mostly Cloudy
1:53 PM 14.0 °F -0.8 °F 5.0 °F 67% 30.29 in 10.0 mi WSW 13.8 mph - N/A   Mostly Cloudy
2:53 PM 16.0 °F 2.9 °F 6.1 °F 65% 30.30 in 10.0 mi SW 11.5 mph - N/A   Mostly Cloudy
3:53 PM 15.1 °F 2.5 °F 5.0 °F 64% 30.30 in 10.0 mi SW 10.4 mph - N/A   Scattered Clouds
4:53 PM 12.9 °F -1.6 °F 3.9 °F 67% 30.30 in 10.0 mi WSW 12.7 mph - N/A   Scattered Clouds
5:53 PM 12.0 °F -4.5 °F 3.9 °F 70% 30.29 in 10.0 mi WSW 16.1 mph - N/A   Scattered Clouds
6:53 PM 10.9 °F -7.0 °F 1.9 °F 67% 30.30 in 10.0 mi WSW 18.4 mph - N/A   Mostly Cloudy
7:53 PM 9.0 °F -11.4 °F 1.9 °F 73% 30.29 in 10.0 mi WSW 23.0 mph - N/A   Mostly Cloudy
8:53 PM 8.1 °F -12.6 °F 1.0 °F 73% 30.30 in 10.0 mi WSW 23.0 mph - N/A   Mostly Cloudy
9:53 PM 8.1 °F -12.2 °F 1.0 °F 73% 30.29 in 10.0 mi WSW 21.9 mph - N/A   Mostly Cloudy
10:53 PM 8.6 °F -11.0 °F 1.4 °F 73% 30.09 in 10.0 mi WSW 20.7 mph - N/A   Overcast
11:53 PM 8.1 °F -13.0 °F 1.0 °F 73% 30.29 in 9.0 mi WSW 24.2 mph 29.9 mph 0.00 in Snow Light Snow